G3950 Weather Reports


time (UTC)temp
F
wind
direction
speed
knots
gust
knots
rain 1hr
in
rain 24hr
in
rain mn
in
humidity
%
barometer
mb
20260906225847 98 96 4.3 11.3 0.00 0.00 0.00 39 1007.8
20260906224904 98 94 6.1 11.3 0.00 0.00 0.00 38 1007.7
20260906223918 99 97 5.2 11.3 0.00 0.00 0.00 38 1007.8
20260906222843 98 99 5.2 10.4 0.00 0.00 0.00 38 1007.8
20260906221908 98 103 4.3 10.4 0.00 0.00 0.00 40 1007.9
20260906220839 98 84 4.3 8.7 0.00 0.00 0.00 39 1008.0
20260906213610 97 67 5.2 13.9 0.00 0.00 0.00 39 1008.3
20260906212610 98 59 7.0 13.9 0.00 0.00 0.00 39 1008.4
20260906211628 98 44 6.1 11.3 0.00 0.00 0.00 41 1008.4
20260906210629 98 53 5.2 12.2 0.00 0.00 0.00 40 1008.7
20260906204450 100 159 4.3 11.3 0.00 0.00 0.00 38 1009.0
20260906203453 100 71 6.1 10.4 0.00 0.00 0.00 38 1009.0
20260906202444 102 157 4.3 11.3 0.00 0.00 0.00 36 1009.2
20260906201452 101 129 5.2 11.3 0.00 0.00 0.00 37 1009.2
20260906200513 100 96 6.1 13.0 0.00 0.00 0.00 38 1009.2
20260906195520 99 101 7.8 13.0 0.00 0.00 0.00 39 1009.4
20260906194511 99 69 4.3 13.9 0.00 0.00 0.00 40 1009.4
20260906193524 98 83 7.0 13.9 0.00 0.00 0.00 40 1009.5
20260906192530 98 117 7.0 13.9 0.00 0.00 0.00 40 1009.7
20260906191544 98 112 5.2 13.9 0.00 0.00 0.00 41 1009.8
20260906190513 98 81 7.8 13.0 0.00 0.00 0.00 39 1009.8
20260906185447 99 153 7.0 13.9 0.00 0.00 0.00 40 1010.0
20260906183334 98 135 7.0 12.2 0.00 0.00 0.00 40 1010.1
20260906182318 97 118 5.2 12.2 0.00 0.00 0.00 42 1010.3
20260906181314 97 67 6.1 12.2 0.00 0.00 0.00 44 1010.6
20260906180303 98 110 5.2 13.0 0.00 0.00 0.00 41 1010.6
20260906175243 97 137 7.0 13.0 0.00 0.00 0.00 42 1010.9
20260906174241 97 107 7.0 12.2 0.00 0.00 0.00 44 1011.1
20260906172037 96 42 5.2 11.3 0.00 0.00 0.00 45 1011.2
20260906171026 95 26 6.1 11.3 0.00 0.00 0.00 46 1011.3
20260906170026 95 157 4.3 8.7 0.00 0.00 0.00 48 1011.5
20260906163825 94 78 4.3 9.6 0.00 0.00 0.00 49 1011.5
20260906162805 94 54 3.5 7.8 0.00 0.00 0.00 51 1011.4
20260906160727 93 44 3.5 8.7 0.00 0.00 0.00 52 1011.5
20260906155715 93 24 2.6 8.7 0.00 0.00 0.00 52 1011.6
20260906154701 93 39 1.7 7.0 0.00 0.00 0.00 55 1011.6
20260906153719 92 157 0.9 3.5 0.00 0.00 0.00 57 1011.7
20260906152656 92 18 0.9 3.5 0.00 0.00 0.00 58 1011.6
20260906151631 91 147 0.9 4.3 0.00 0.00 0.00 59 1011.4
20260906145504 89 106 1.7 4.3 0.00 0.00 0.00 62 1011.3
20260906143341 87 92 0.0 2.6 0.00 0.00 0.00 66 1011.3
20260906142330 85 138 0.0 0.0 0.00 0.00 0.00 68 1011.3
20260906141351 85 5 0.9 2.6 0.00 0.00 0.00 70 1011.3
20260906135246 83 84 0.9 4.3 0.00 0.00 0.00 74 1011.5
20260906134218 81 88 1.7 4.3 0.00 0.00 0.00 77 1011.3
20260906133223 80 142 1.7 5.2 0.00 0.00 0.00 79 1011.2
20260906132204 78 148 0.0 5.2 0.00 0.00 0.00 83 1011.3
20260906131152 76 140 0.0 0.0 0.00 0.00 0.00 87 1011.3
20260906130135 75 140 0.0 0.0 0.00 0.00 0.00 89 1011.2
20260906125119 74 165 0.0 0.0 0.00 0.00 0.00 88 1011.0
20260906124135 74 165 0.0 0.0 0.00 0.00 0.00 88 1011.0
20260906123156 74 165 0.0 0.0 0.00 0.00 0.00 88 1011.0
20260906122124 73 165 0.0 0.0 0.00 0.00 0.00 88 1010.9
20260906121055 73 165 0.0 0.0 0.00 0.00 0.00 87 1010.8
20260906120115 73 61 0.0 0.0 0.00 0.00 0.00 87 1010.7
20260906115052 73 61 0.0 0.0 0.00 0.00 0.00 86 1010.6
20260906114022 74 57 0.0 0.0 0.00 0.00 0.00 85 1010.4
20260906113024 74 57 0.0 0.0 0.00 0.00 0.00 85 1010.5
20260906112042 74 115 0.0 0.0 0.00 0.00 0.00 85 1010.2
20260906111107 74 115 0.0 0.0 0.00 0.00 0.00 85 1010.1
20260906110132 75 115 0.0 0.0 0.00 0.00 0.00 85 1010.0
20260906105156 74 115 0.0 0.0 0.00 0.00 0.00 85 1009.9
20260906104125 74 115 0.0 0.0 0.00 0.00 0.00 85 1009.9
20260906103150 75 115 0.0 0.0 0.00 0.00 0.00 84 1010.0
20260906102158 75 115 0.0 0.0 0.00 0.00 0.00 83 1010.0
20260906101218 76 115 0.0 0.0 0.00 0.00 0.00 83 1009.8
20260906100241 76 115 0.0 0.0 0.00 0.00 0.00 82 1009.9
20260906093015 77 115 0.0 0.0 0.00 0.00 0.00 80 1009.6
20260906092033 77 115 0.0 0.0 0.00 0.00 0.00 80 1009.4
20260906085908 79 239 0.0 0.0 0.00 0.00 0.00 78 1009.2
20260906084919 79 241 0.0 0.0 0.00 0.00 0.00 78 1009.1
20260906083930 78 166 1.7 4.3 0.00 0.00 0.00 79 1009.2
20260906082911 79 173 2.6 5.2 0.00 0.00 0.00 78 1009.1
20260906081853 79 165 3.5 5.2 0.00 0.00 0.00 78 1009.1
20260906080914 79 172 0.9 3.5 0.00 0.00 0.00 78 1009.2
20260906075937 79 161 0.9 2.6 0.00 0.00 0.00 78 1009.5
20260906074935 79 152 0.9 2.6 0.00 0.00 0.00 77 1009.6
20260906073932 79 162 0.9 3.5 0.00 0.00 0.00 77 1009.8
20260906072925 79 158 1.7 4.3 0.00 0.00 0.00 77 1009.7
20260906071907 79 168 2.6 4.3 0.00 0.00 0.00 76 1009.5
20260906070931 79 156 2.6 3.5 0.00 0.00 0.00 77 1009.4
20260906065912 79 156 1.7 3.5 0.00 0.00 0.00 77 1009.4
20260906064858 80 161 0.9 2.6 0.00 0.00 0.00 76 1009.7
20260906061541 81 161 0.0 2.6 0.00 0.00 0.00 73 1009.8
20260906060539 81 161 0.0 0.0 0.00 0.00 0.00 72 1009.9
20260906055537 82 161 0.9 2.6 0.00 0.00 0.00 72 1010.0
20260906054536 82 161 0.9 2.6 0.00 0.00 0.00 72 1010.0
20260906053505 82 165 1.7 2.6 0.00 0.00 0.00 71 1010.0
20260906052450 83 150 1.7 3.5 0.00 0.00 0.00 70 1010.1
20260906051457 83 182 1.7 3.5 0.00 0.00 0.00 69 1010.0
20260906043156 84 157 1.7 4.3 0.00 0.00 0.00 66 1009.8
20260906042221 85 129 2.6 4.3 0.00 0.00 0.00 66 1009.8
20260906041210 85 154 1.7 4.3 0.00 0.00 0.00 65 1009.7
20260906040149 85 159 2.6 6.1 0.00 0.00 0.00 64 1009.7
20260906034030 86 154 1.7 4.3 0.00 0.00 0.00 61 1009.7
20260906031843 87 159 2.6 5.2 0.00 0.00 0.00 59 1009.7
20260906030814 87 189 2.6 4.3 0.00 0.00 0.00 58 1009.6
20260906024651 88 144 4.3 8.7 0.00 0.00 0.00 56 1009.4
20260906023640 89 144 4.3 7.0 0.00 0.00 0.00 55 1009.2
20260906022642 88 141 6.1 10.4 0.00 0.00 0.00 54 1009.2
20260906021705 87 130 2.6 10.4 0.00 0.00 0.00 54 1009.1
20260906020631 87 176 0.0 2.6 0.00 0.00 0.00 53 1008.6
20260906015645 88 176 0.0 2.6 0.00 0.00 0.00 51 1008.4
20260906014616 90 126 0.0 0.0 0.00 0.00 0.00 49 1008.3
20260906013626 91 126 0.0 0.0 0.00 0.00 0.00 47 1008.2
20260906012557 92 126 0.0 0.0 0.00 0.00 0.00 45 1008.0
20260906010453 93 126 0.0 1.7 0.00 0.00 0.00 43 1007.8
20260906005435 94 126 0.0 4.3 0.00 0.00 0.00 42 1007.8
20260906004400 95 117 0.9 7.0 0.00 0.00 0.00 41 1007.9
20260906002247 96 110 2.6 7.8 0.00 0.00 0.00 39 1007.8
20260906001218 97 114 3.5 7.8 0.00 0.00 0.00 39 1007.7
20260906000222 97 107 3.5 7.0 0.00 0.00 0.00 38 1007.7
20260905235233 97 78 2.6 6.1 0.00 0.00 0.00 37 1007.6
20260905234226 98 131 2.6 7.8 0.00 0.00 0.00 37 1007.5
20260905233222 98 88 3.5 7.8 0.00 0.00 0.00 36 1007.6
20260905232212 98 128 4.3 7.8 0.00 0.00 0.00 35 1007.5
20260905231223 99 117 3.5 7.8 0.00 0.00 0.00 36 1007.5
20260905230206 99 109 4.3 7.8 0.00 0.00 0.00 35 1007.5